Location: Newark
(48.7936°N, 6.0014°E)
Time: 22:19:24
(UTC+00:00)

Envisat - Visible Passes

Search period start: 07 December 2019 00:00
Search period end: 17 December 2019 00:00
Orbit: 764 x 766 km, 98.1° (Epoch: 07 December)

Date Brightness Start Highest point End Pass type
(mag) Time Alt. Az. Time Alt. Az. Time Alt. Az.
07 Dec 6.2 04:55:04 10° ENE 04:56:41 11° E 04:58:19 10° ESE visible
07 Dec 3.2 06:31:27 10° NNE 06:36:34 79° ESE 06:41:39 10° S visible
07 Dec 4.0 16:12:18 10° ESE 16:16:19 24° ENE 16:20:21 10° N visible
07 Dec 3.7 17:50:02 10° S 17:55:00 55° W 18:00:02 10° NNW visible
08 Dec 4.6 05:54:54 10° NNE 05:59:40 38° E 06:04:23 10° SSE visible
08 Dec 2.9 17:13:08 10° SSE 17:18:12 74° ENE 17:23:18 10° N visible
08 Dec 5.7 18:54:34 10° SW 18:57:48 17° W 19:01:03 10° NW visible
09 Dec 5.8 05:18:55 10° NE 05:22:33 19° E 05:26:09 10° SE visible
09 Dec 3.5 16:36:56 10° SE 16:41:35 37° ENE 16:46:15 10° N visible
09 Dec 4.7 18:16:04 10° SSW 18:20:39 33° W 18:25:15 10° NNW visible
10 Dec 3.6 06:20:12 10° NNE 06:25:16 64° ESE 06:30:18 10° S visible
10 Dec 3.3 17:38:39 10° S 17:43:42 69° WSW 17:48:47 10° NNW visible
11 Dec 5.0 05:43:47 10° NNE 05:48:18 31° E 05:52:48 10° SSE visible
11 Dec 3.0 17:01:57 10° SSE 17:06:57 60° ENE 17:11:58 10° N visible
11 Dec 5.5 18:42:37 10° SW 18:46:23 21° W 18:50:11 10° NW visible
12 Dec 6.0 05:08:06 10° NE 05:11:07 16° E 05:14:08 10° SE visible
12 Dec 3.7 16:25:58 10° SE 16:30:23 31° ENE 16:34:50 10° N visible
12 Dec 4.3 18:04:30 10° SSW 18:09:18 41° W 18:14:07 10° NNW visible
13 Dec 4.0 06:08:58 10° NNE 06:13:57 51° E 06:18:53 10° S visible
13 Dec 3.0 17:27:19 10° SSE 17:32:24 84° WSW 17:37:32 10° NNW visible
13 Dec 6.1 19:10:09 10° WSW 19:12:13 12° W 19:14:18 10° WNW visible
14 Dec 5.3 05:32:42 10° NE 05:36:55 26° E 05:41:07 10° SSE visible
14 Dec 3.2 16:50:50 10° SE 16:55:42 49° ENE 17:00:37 10° N visible
14 Dec 5.2 18:30:49 10° SSW 18:34:59 25° W 18:39:11 10° NW visible
15 Dec 6.1 04:57:33 10° ENE 04:59:41 12° E 05:01:49 10° ESE visible
15 Dec 3.1 06:34:23 10° NNE 06:39:30 85° ESE 06:44:35 10° SSW visible
15 Dec 3.9 16:15:04 10° ESE 16:19:12 26° ENE 16:23:22 10° N visible
15 Dec 3.8 17:53:01 10° S 17:57:57 51° W 18:02:56 10° NNW visible
16 Dec 4.4 05:57:47 10° NNE 06:02:36 42° E 06:07:24 10° SSE visible
16 Dec 2.9 17:16:03 10° SSE 17:21:08 80° ENE 17:26:14 10° NNW visible
16 Dec 5.8 18:57:49 10° WSW 19:00:47 15° W 19:03:46 10° NW visible
